Location: Baia Mare
(47.6567°N, 23.5850°E)
Time: 00:22:09
(UTC+03:00)

ISS - Pass Details

Date: 13 July 2018
Orbit: 402 x 408 km, 51.6° (Epoch: 16 July)

Event Time Altitude Azimuth Distance (km) Brightness Sun altitude
Exits shadow 02:58:10 39° 264° (W) 627 -3.1 -17.8°
Maximum altitude 02:59:14 72° 339° (NNW) 431 -3.7 -17.7°
Drops below altitude 10° 03:02:32 10° 65° (ENE) 1,472 -0.3 -17.5°
Sets 03:04:37 0° 67° (ENE) 2,335 0.7 -17.4°
